| time (UTC) | temp C | wind direction | speed KPH | gust KPH | rain 1hr cm | rain 24hr cm | rain mn cm | humidity % | barometer mb |
| 20260507085519 | 2 | 0 | 0.0 | 6.4 | 0.00 | 1.19 | 0.00 | 93 | 1006.1 |
| 20260507085020 | 2 | 216 | 0.0 | 9.7 | 0.00 | 1.19 | 0.00 | 93 | 1006.2 |
| 20260507084541 | 2 | 161 | 1.6 | 9.7 | 0.00 | 1.19 | 0.00 | 93 | 1006.3 |
| 20260507084025 | 2 | 221 | 1.6 | 8.0 | 0.00 | 1.19 | 0.00 | 93 | 1006.2 |
| 20260507083519 | 2 | 0 | 0.0 | 8.0 | 0.00 | 1.19 | 0.00 | 93 | 1006.3 |
| 20260507083039 | 2 | 81 | 1.6 | 8.0 | 0.00 | 1.19 | 0.00 | 93 | 1006.2 |
| 20260507082521 | 2 | 0 | 0.0 | 6.4 | 0.00 | 1.19 | 0.00 | 93 | 1006.1 |
| 20260507082020 | 2 | 0 | 1.6 | 11.3 | 0.00 | 1.19 | 0.00 | 93 | 1006.1 |
| 20260507081538 | 2 | 259 | 1.6 | 11.3 | 0.00 | 1.19 | 0.00 | 93 | 1006.1 |
| 20260507081021 | 2 | 0 | 0.0 | 8.0 | 0.00 | 1.19 | 0.00 | 93 | 1006.1 |
| 20260507080526 | 2 | 0 | 0.0 | 16.1 | 0.00 | 1.19 | 0.00 | 92 | 1006.3 |
| 20260507080041 | 2 | 247 | 4.8 | 16.1 | 0.00 | 1.19 | 0.00 | 92 | 1006.2 |
| 20260507075522 | 2 | 278 | 1.6 | 4.8 | 0.00 | 1.19 | 0.00 | 92 | 1006.2 |
| 20260507075022 | 2 | 0 | 0.0 | 8.0 | 0.00 | 1.19 | 0.00 | 92 | 1006.2 |
| 20260507074536 | 2 | 0 | 1.6 | 11.3 | 0.00 | 1.19 | 0.00 | 93 | 1006.2 |
| 20260507074021 | 2 | 241 | 0.0 | 14.5 | 0.00 | 1.19 | 0.00 | 93 | 1006.1 |
| 20260507073521 | 2 | 113 | 1.6 | 14.5 | 0.00 | 1.19 | 0.00 | 93 | 1005.9 |
| 20260507073036 | 2 | 205 | 3.2 | 14.5 | 0.00 | 1.19 | 0.00 | 93 | 1005.8 |
| 20260507072519 | 2 | 244 | 0.0 | 8.0 | 0.00 | 1.19 | 0.00 | 93 | 1005.9 |
| 20260507072018 | 2 | 244 | 1.6 | 11.3 | 0.00 | 1.19 | 0.00 | 93 | 1005.7 |
| 20260507071536 | 2 | 0 | 1.6 | 14.5 | 0.00 | 1.19 | 0.00 | 93 | 1005.7 |
| 20260507071022 | 3 | 227 | 4.8 | 14.5 | 0.00 | 1.19 | 0.00 | 93 | 1005.6 |
| 20260507070522 | 3 | 238 | 3.2 | 12.9 | 0.00 | 1.19 | 0.00 | 93 | 1005.6 |
| 20260507070036 | 3 | 0 | 3.2 | 11.3 | 0.00 | 1.19 | 0.00 | 93 | 1005.5 |
| 20260507065518 | 3 | 253 | 3.2 | 11.3 | 0.00 | 1.19 | 0.00 | 93 | 1005.6 |
| 20260507065018 | 3 | 162 | 1.6 | 8.0 | 0.00 | 1.19 | 0.00 | 93 | 1005.6 |
| 20260507064540 | 3 | 245 | 0.0 | 8.0 | 0.00 | 1.19 | 0.00 | 93 | 1005.5 |
| 20260507064023 | 3 | 250 | 1.6 | 11.3 | 0.00 | 1.19 | 0.00 | 93 | 1005.5 |
| 20260507063520 | 3 | 242 | 1.6 | 11.3 | 0.00 | 1.19 | 0.00 | 93 | 1005.7 |
| 20260507063034 | 3 | 0 | 0.0 | 17.7 | 0.00 | 1.19 | 0.00 | 93 | 1005.6 |
| 20260507062522 | 3 | 215 | 1.6 | 19.3 | 0.00 | 1.19 | 0.00 | 93 | 1005.7 |
| 20260507062020 | 3 | 248 | 1.6 | 19.3 | 0.00 | 1.19 | 0.00 | 93 | 1005.5 |
| 20260507061535 | 3 | 254 | 1.6 | 16.1 | 0.00 | 1.19 | 0.00 | 93 | 1005.5 |
| 20260507061021 | 3 | 153 | 3.2 | 16.1 | 0.00 | 1.19 | 0.00 | 93 | 1005.6 |
| 20260507060521 | 3 | 239 | 1.6 | 17.7 | 0.00 | 1.19 | 0.00 | 93 | 1005.5 |
| 20260507060037 | 3 | 220 | 6.4 | 19.3 | 0.00 | 1.19 | 0.00 | 93 | 1005.4 |
| 20260507055521 | 3 | 245 | 6.4 | 19.3 | 0.00 | 1.19 | 0.00 | 93 | 1006.0 |
| 20260507055022 | 3 | 210 | 3.2 | 14.5 | 0.00 | 1.19 | 0.00 | 93 | 1006.0 |
| 20260507054540 | 3 | 0 | 1.6 | 11.3 | 0.00 | 1.19 | 0.00 | 93 | 1005.8 |
| 20260507054024 | 3 | 275 | 0.0 | 9.7 | 0.00 | 1.19 | 0.00 | 93 | 1006.1 |
| 20260507053521 | 3 | 275 | 0.0 | 11.3 | 0.00 | 1.19 | 0.00 | 93 | 1006.3 |
| 20260507053034 | 3 | 285 | 3.2 | 11.3 | 0.00 | 1.19 | 0.00 | 92 | 1006.2 |
| 20260507052521 | 3 | 237 | 0.0 | 16.1 | 0.00 | 1.19 | 0.00 | 92 | 1006.1 |
| 20260507052023 | 3 | 0 | 1.6 | 20.9 | 0.00 | 1.19 | 0.00 | 92 | 1006.2 |
| 20260507051535 | 3 | 224 | 3.2 | 20.9 | 0.00 | 1.19 | 0.00 | 92 | 1006.1 |
| 20260507051020 | 3 | 246 | 8.0 | 20.9 | 0.00 | 1.19 | 0.00 | 92 | 1006.3 |
| 20260507050521 | 3 | 265 | 6.4 | 20.9 | 0.00 | 1.19 | 0.00 | 91 | 1006.2 |
| 20260507050042 | 3 | 0 | 3.2 | 11.3 | 0.00 | 1.19 | 0.00 | 91 | 1006.0 |
| 20260507045521 | 3 | 259 | 1.6 | 14.5 | 0.00 | 1.22 | 0.00 | 90 | 1006.1 |
| 20260507045021 | 3 | 257 | 0.0 | 29.0 | 0.00 | 1.22 | 0.00 | 90 | 1006.2 |
| 20260507044538 | 3 | 287 | 3.2 | 29.0 | 0.00 | 1.22 | 0.00 | 90 | 1006.2 |
| 20260507044022 | 3 | 252 | 9.7 | 29.0 | 0.00 | 1.22 | 0.00 | 89 | 1006.2 |
| 20260507043524 | 3 | 221 | 0.0 | 16.1 | 0.00 | 1.22 | 0.00 | 89 | 1006.1 |
| 20260507043035 | 3 | 224 | 4.8 | 16.1 | 0.00 | 1.22 | 0.00 | 89 | 1005.9 |
| 20260507042520 | 3 | 225 | 4.8 | 16.1 | 0.00 | 1.22 | 0.00 | 89 | 1005.8 |
| 20260507042021 | 3 | 261 | 4.8 | 16.1 | 0.00 | 1.22 | 0.00 | 88 | 1005.9 |
| 20260507041549 | 3 | 253 | 1.6 | 8.0 | 0.00 | 1.22 | 0.00 | 88 | 1005.8 |
| 20260507041019 | 3 | 244 | 1.6 | 6.4 | 0.00 | 1.22 | 0.00 | 89 | 1006.1 |
| 20260507040524 | 3 | 246 | 1.6 | 8.0 | 0.00 | 1.22 | 0.00 | 88 | 1006.0 |
| 20260507040034 | 3 | 0 | 0.0 | 8.0 | 0.00 | 1.22 | 0.00 | 87 | 1006.0 |
| 20260507035521 | 3 | 245 | 0.0 | 1.6 | 0.00 | 1.32 | 1.22 | 88 | 1005.9 |
| 20260507035020 | 3 | 0 | 0.0 | 4.8 | 0.00 | 1.32 | 1.22 | 89 | 1005.9 |
| 20260507034536 | 3 | 0 | 0.0 | 11.3 | 0.00 | 1.32 | 1.22 | 88 | 1005.7 |
| 20260507034021 | 3 | 0 | 1.6 | 12.9 | 0.00 | 1.32 | 1.22 | 87 | 1005.9 |
| 20260507033521 | 3 | 245 | 1.6 | 12.9 | 0.00 | 1.32 | 1.22 | 87 | 1005.9 |
| 20260507033044 | 3 | 239 | 3.2 | 12.9 | 0.00 | 1.32 | 1.22 | 88 | 1006.0 |
| 20260507032522 | 3 | 236 | 3.2 | 14.5 | 0.00 | 1.32 | 1.22 | 89 | 1006.1 |
| 20260507032019 | 3 | 241 | 3.2 | 14.5 | 0.00 | 1.32 | 1.22 | 90 | 1006.1 |
| 20260507031536 | 3 | 253 | 3.2 | 14.5 | 0.00 | 1.32 | 1.22 | 90 | 1006.1 |
| 20260507031018 | 3 | 236 | 3.2 | 14.5 | 0.00 | 1.32 | 1.22 | 90 | 1006.2 |
| 20260507030523 | 3 | 0 | 3.2 | 16.1 | 0.00 | 1.32 | 1.22 | 91 | 1006.2 |
| 20260507030037 | 3 | 254 | 1.6 | 16.1 | 0.03 | 1.32 | 1.22 | 91 | 1006.4 |
| 20260507025522 | 3 | 232 | 3.2 | 16.1 | 0.03 | 1.32 | 1.22 | 91 | 1006.4 |
| 20260507025022 | 3 | 267 | 3.2 | 16.1 | 0.03 | 1.32 | 1.22 | 91 | 1006.4 |
| 20260507024535 | 3 | 246 | 3.2 | 14.5 | 0.03 | 1.32 | 1.22 | 91 | 1006.5 |
| 20260507024021 | 3 | 239 | 4.8 | 16.1 | 0.03 | 1.32 | 1.22 | 91 | 1006.5 |
| 20260507023521 | 3 | 59 | 3.2 | 16.1 | 0.03 | 1.32 | 1.22 | 92 | 1006.4 |
| 20260507023035 | 3 | 285 | 3.2 | 19.3 | 0.03 | 1.32 | 1.22 | 92 | 1006.5 |
| 20260507022522 | 4 | 218 | 3.2 | 19.3 | 0.03 | 1.32 | 1.22 | 92 | 1006.6 |
| 20260507022021 | 4 | 265 | 3.2 | 14.5 | 0.03 | 1.32 | 1.22 | 93 | 1006.6 |
| 20260507021535 | 4 | 303 | 1.6 | 19.3 | 0.05 | 1.32 | 1.22 | 92 | 1006.8 |
| 20260507021023 | 4 | 241 | 4.8 | 19.3 | 0.05 | 1.32 | 1.22 | 92 | 1006.7 |
| 20260507020522 | 4 | 226 | 3.2 | 16.1 | 0.08 | 1.32 | 1.22 | 92 | 1006.7 |
| 20260507020042 | 4 | 250 | 4.8 | 24.1 | 0.05 | 1.32 | 1.19 | 92 | 1006.7 |
| 20260507015518 | 4 | 236 | 1.6 | 24.1 | 0.05 | 1.32 | 1.19 | 92 | 1006.6 |
| 20260507015021 | 4 | 252 | 3.2 | 24.1 | 0.05 | 1.32 | 1.19 | 92 | 1006.6 |
| 20260507014550 | 4 | 196 | 6.4 | 22.5 | 0.05 | 1.32 | 1.19 | 92 | 1006.5 |
| 20260507014019 | 4 | 227 | 1.6 | 22.5 | 0.05 | 1.32 | 1.19 | 92 | 1006.6 |
| 20260507013519 | 4 | 258 | 4.8 | 22.5 | 0.05 | 1.32 | 1.19 | 92 | 1006.4 |
| 20260507013044 | 5 | 237 | 3.2 | 16.1 | 0.05 | 1.32 | 1.19 | 92 | 1006.3 |
| 20260507012554 | 5 | 321 | 1.6 | 16.1 | 0.08 | 1.32 | 1.19 | 92 | 1006.2 |
| 20260507012025 | 5 | 235 | 1.6 | 12.9 | 0.08 | 1.32 | 1.19 | 92 | 1006.2 |
| 20260507011539 | 5 | 273 | 1.6 | 11.3 | 0.05 | 1.30 | 1.17 | 92 | 1006.2 |
| 20260507011023 | 5 | 240 | 1.6 | 11.3 | 0.05 | 1.30 | 1.17 | 92 | 1006.4 |
| 20260507010520 | 5 | 0 | 0.0 | 12.9 | 0.03 | 1.27 | 1.14 | 92 | 1006.4 |
| 20260507010035 | 5 | 261 | 0.0 | 16.1 | 0.03 | 1.27 | 1.14 | 92 | 1006.4 |
| 20260507005523 | 5 | 244 | 1.6 | 16.1 | 0.03 | 1.27 | 1.14 | 92 | 1006.3 |
| 20260507005022 | 5 | 241 | 1.6 | 9.7 | 0.03 | 1.27 | 1.14 | 93 | 1006.2 |
| 20260507004534 | 5 | 192 | 0.0 | 4.8 | 0.03 | 1.27 | 1.14 | 93 | 1006.2 |
| 20260507004020 | 5 | 0 | 0.0 | 3.2 | 0.03 | 1.27 | 1.14 | 92 | 1006.1 |
| 20260507003523 | 5 | 0 | 0.0 | 12.9 | 0.03 | 1.27 | 1.14 | 92 | 1006.0 |
| 20260507003041 | 6 | 0 | 3.2 | 12.9 | 0.03 | 1.27 | 1.14 | 92 | 1005.8 |
| 20260507002519 | 6 | 229 | 0.0 | 17.7 | 0.00 | 1.24 | 1.12 | 92 | 1005.8 |
| 20260507002021 | 6 | 212 | 4.8 | 17.7 | 0.00 | 1.24 | 1.12 | 92 | 1005.7 |
| 20260507001542 | 6 | 280 | 3.2 | 16.1 | 0.00 | 1.24 | 1.12 | 92 | 1005.6 |
| 20260507001021 | 6 | 238 | 3.2 | 14.5 | 0.00 | 1.24 | 1.12 | 92 | 1005.5 |
| 20260507000526 | 6 | 250 | 1.6 | 14.5 | 0.00 | 1.24 | 1.12 | 92 | 1005.3 |
| 20260507000035 | 6 | 222 | 3.2 | 14.5 | 0.00 | 1.24 | 1.12 | 92 | 1005.5 |
| 20260506235522 | 6 | 182 | 0.0 | 8.0 | 0.00 | 1.24 | 1.12 | 92 | 1005.4 |
| 20260506235020 | 6 | 0 | 1.6 | 6.4 | 0.00 | 1.24 | 1.12 | 92 | 1005.2 |
| 20260506234535 | 6 | 242 | 1.6 | 6.4 | 0.00 | 1.24 | 1.12 | 92 | 1005.0 |
| 20260506234019 | 6 | 157 | 1.6 | 12.9 | 0.00 | 1.24 | 1.12 | 92 | 1004.8 |
| 20260506233522 | 7 | 236 | 1.6 | 16.1 | 0.00 | 1.24 | 1.12 | 92 | 1004.7 |
| 20260506233044 | 7 | 241 | 6.4 | 16.1 | 0.00 | 1.24 | 1.12 | 92 | 1004.6 |
| 20260506232522 | 7 | 247 | 3.2 | 16.1 | 0.00 | 1.24 | 1.12 | 92 | 1004.6 |
| 20260506232022 | 7 | 259 | 4.8 | 16.1 | 0.00 | 1.24 | 1.12 | 92 | 1004.4 |
| 20260506231547 | 7 | 250 | 1.6 | 9.7 | 0.00 | 1.24 | 1.12 | 93 | 1004.4 |
| 20260506231019 | 7 | 172 | 1.6 | 9.7 | 0.00 | 1.24 | 1.12 | 93 | 1004.4 |
| 20260506230518 | 8 | 163 | 1.6 | 11.3 | 0.00 | 1.24 | 1.12 | 93 | 1004.4 |
| 20260506230038 | 8 | 209 | 1.6 | 11.3 | 0.00 | 1.24 | 1.12 | 93 | 1004.5 |
| 20260506225521 | 8 | 200 | 1.6 | 11.3 | 0.00 | 1.24 | 1.12 | 93 | 1004.2 |
| 20260506225024 | 8 | 195 | 1.6 | 11.3 | 0.00 | 1.24 | 1.12 | 93 | 1004.2 |
| 20260506224535 | 8 | 70 | 3.2 | 12.9 | 0.00 | 1.24 | 1.12 | 93 | 1004.0 |
| 20260506224021 | 8 | 152 | 3.2 | 12.9 | 0.00 | 1.24 | 1.12 | 93 | 1004.0 |
| 20260506223519 | 8 | 233 | 3.2 | 12.9 | 0.00 | 1.24 | 1.12 | 93 | 1004.0 |
| 20260506223035 | 8 | 130 | 1.6 | 17.7 | 0.00 | 1.24 | 1.12 | 94 | 1003.9 |
| 20260506222522 | 8 | 207 | 3.2 | 17.7 | 0.00 | 1.24 | 1.12 | 93 | 1003.8 |
| 20260506222022 | 7 | 254 | 3.2 | 17.7 | 0.00 | 1.24 | 1.12 | 93 | 1003.9 |
| 20260506221535 | 7 | 150 | 3.2 | 17.7 | 0.00 | 1.24 | 1.12 | 92 | 1003.9 |
| 20260506221022 | 7 | 167 | 4.8 | 17.7 | 0.00 | 1.24 | 1.12 | 92 | 1003.9 |
| 20260506220521 | 8 | 225 | 4.8 | 19.3 | 0.00 | 1.24 | 1.12 | 90 | 1003.9 |
| 20260506220038 | 9 | 226 | 4.8 | 20.9 | 0.00 | 1.24 | 1.12 | 90 | 1003.7 |
| 20260506215518 | 10 | 262 | 8.0 | 20.9 | 0.00 | 1.24 | 1.12 | 89 | 1003.7 |
| 20260506215021 | 10 | 274 | 3.2 | 19.3 | 0.00 | 1.24 | 1.12 | 89 | 1003.7 |
| 20260506214540 | 11 | 239 | 6.4 | 17.7 | 0.00 | 1.24 | 1.12 | 90 | 1003.6 |
| 20260506214020 | 11 | 224 | 3.2 | 16.1 | 0.00 | 1.24 | 1.12 | 91 | 1003.7 |
| 20260506213519 | 11 | 196 | 1.6 | 12.9 | 0.03 | 1.24 | 1.12 | 91 | 1003.6 |
| 20260506213038 | 11 | 179 | 1.6 | 17.7 | 0.03 | 1.24 | 1.12 | 91 | 1003.6 |
| 20260506212522 | 11 | 146 | 1.6 | 17.7 | 0.03 | 1.24 | 1.12 | 92 | 1003.7 |
| 20260506212024 | 11 | 203 | 3.2 | 17.7 | 0.03 | 1.24 | 1.12 | 91 | 1003.6 |
| 20260506211537 | 11 | 163 | 3.2 | 16.1 | 0.03 | 1.24 | 1.12 | 91 | 1003.6 |
| 20260506211022 | 11 | 261 | 4.8 | 16.1 | 0.03 | 1.24 | 1.12 | 92 | 1003.6 |
| 20260506210522 | 11 | 176 | 4.8 | 16.1 | 0.03 | 1.24 | 1.12 | 92 | 1003.6 |
| 20260506210038 | 11 | 157 | 4.8 | 16.1 | 0.05 | 1.24 | 1.12 | 92 | 1003.7 |
| 20260506205521 | 11 | 120 | 3.2 | 14.5 | 0.05 | 1.37 | 1.12 | 93 | 1003.5 |
| 20260506205021 | 11 | 163 | 3.2 | 14.5 | 0.08 | 1.37 | 1.12 | 93 | 1003.6 |
| 20260506204538 | 11 | 157 | 4.8 | 19.3 | 0.08 | 1.37 | 1.12 | 93 | 1003.7 |
| 20260506204021 | 11 | 178 | 4.8 | 19.3 | 0.08 | 1.37 | 1.12 | 93 | 1003.8 |
| 20260506203519 | 11 | 157 | 3.2 | 19.3 | 0.05 | 1.32 | 1.09 | 94 | 1003.6 |
| 20260506203043 | 11 | 157 | 1.6 | 8.0 | 0.05 | 1.32 | 1.09 | 93 | 1003.7 |
| 20260506202521 | 11 | 0 | 0.0 | 9.7 | 0.08 | 1.32 | 1.09 | 94 | 1003.7 |
| 20260506202020 | 11 | 0 | 0.0 | 12.9 | 0.08 | 1.32 | 1.09 | 93 | 1003.8 |
| 20260506201537 | 11 | 0 | 0.0 | 12.9 | 0.08 | 1.32 | 1.09 | 92 | 1003.9 |
| 20260506201018 | 11 | 144 | 0.0 | 12.9 | 0.10 | 1.32 | 1.09 | 93 | 1003.9 |
| 20260506200518 | 11 | 209 | 1.6 | 19.3 | 0.15 | 1.32 | 1.09 | 93 | 1004.0 |
| 20260506200044 | 11 | 174 | 1.6 | 19.3 | 0.15 | 1.32 | 1.07 | 93 | 1003.9 |
| 20260506195521 | 11 | 155 | 8.0 | 19.3 | 0.18 | 1.32 | 1.07 | 93 | 1003.9 |
| 20260506195019 | 11 | 137 | 4.8 | 16.1 | 0.18 | 1.30 | 1.04 | 94 | 1003.9 |
| 20260506194535 | 11 | 150 | 3.2 | 16.1 | 0.18 | 1.30 | 1.04 | 94 | 1003.9 |
| 20260506194023 | 11 | 162 | 3.2 | 14.5 | 0.18 | 1.30 | 1.04 | 94 | 1003.9 |
| 20260506193520 | 11 | 175 | 3.2 | 14.5 | 0.20 | 1.30 | 1.04 | 94 | 1004.1 |
| 20260506193034 | 11 | 146 | 3.2 | 14.5 | 0.20 | 1.27 | 1.02 | 94 | 1004.0 |
| 20260506192519 | 11 | 146 | 4.8 | 12.9 | 0.23 | 1.27 | 1.02 | 93 | 1004.0 |
| 20260506192021 | 11 | 142 | 3.2 | 9.7 | 0.23 | 1.27 | 1.02 | 93 | 1003.9 |
| 20260506191538 | 12 | 184 | 1.6 | 9.7 | 0.23 | 1.24 | 0.99 | 94 | 1003.9 |
| 20260506191018 | 12 | 159 | 0.0 | 17.7 | 0.20 | 1.22 | 0.97 | 94 | 1003.9 |
| 20260506190523 | 12 | 159 | 1.6 | 17.7 | 0.20 | 1.19 | 0.94 | 94 | 1004.0 |
| 20260506190038 | 12 | 130 | 6.4 | 16.1 | 0.18 | 1.17 | 0.91 | 94 | 1004.1 |
| 20260506185520 | 12 | 188 | 3.2 | 16.1 | 0.15 | 1.14 | 0.89 | 94 | 1004.0 |
| 20260506185022 | 12 | 208 | 4.8 | 16.1 | 0.15 | 1.12 | 0.86 | 95 | 1004.2 |
| 20260506184535 | 12 | 162 | 1.6 | 16.1 | 0.18 | 1.12 | 0.86 | 95 | 1004.3 |
| 20260506184020 | 11 | 169 | 4.8 | 16.1 | 0.18 | 1.12 | 0.86 | 95 | 1004.4 |
| 20260506183521 | 11 | 124 | 4.8 | 12.9 | 0.20 | 1.09 | 0.84 | 95 | 1004.3 |
| 20260506183041 | 11 | 160 | 3.2 | 12.9 | 0.15 | 1.04 | 0.79 | 95 | 1004.4 |
| 20260506182520 | 11 | 98 | 1.6 | 12.9 | 0.18 | 1.04 | 0.79 | 95 | 1004.3 |
| 20260506182021 | 11 | 115 | 4.8 | 12.9 | 0.20 | 1.04 | 0.79 | 95 | 1004.2 |
| 20260506181544 | 11 | 147 | 3.2 | 14.5 | 0.20 | 1.02 | 0.76 | 94 | 1004.2 |
| 20260506181023 | 11 | 161 | 1.6 | 19.3 | 0.23 | 1.02 | 0.76 | 94 | 1004.5 |
| 20260506180528 | 11 | 164 | 3.2 | 19.3 | 0.23 | 0.99 | 0.74 | 94 | 1004.4 |
| 20260506180049 | 11 | 138 | 6.4 | 17.7 | 0.25 | 0.99 | 0.74 | 94 | 1004.6 |
| 20260506175519 | 11 | 119 | 4.8 | 17.7 | 0.28 | 0.99 | 0.74 | 94 | 1004.6 |
| 20260506175020 | 11 | 143 | 3.2 | 17.7 | 0.25 | 0.97 | 0.71 | 93 | 1004.8 |
| 20260506174538 | 11 | 108 | 1.6 | 11.3 | 0.25 | 0.94 | 0.69 | 93 | 1004.9 |
| 20260506174021 | 11 | 153 | 1.6 | 17.7 | 0.25 | 0.91 | 0.66 | 93 | 1005.0 |
| 20260506173520 | 11 | 162 | 6.4 | 17.7 | 0.25 | 0.89 | 0.64 | 92 | 1005.0 |
| 20260506173039 | 11 | 175 | 3.2 | 14.5 | 0.25 | 0.89 | 0.64 | 93 | 1005.2 |
| 20260506172522 | 11 | 149 | 3.2 | 14.5 | 0.25 | 0.86 | 0.61 | 93 | 1005.2 |
| 20260506172026 | 11 | 151 | 3.2 | 14.5 | 0.23 | 0.84 | 0.58 | 93 | 1005.4 |
| 20260506171547 | 11 | 153 | 3.2 | 12.9 | 0.23 | 0.81 | 0.56 | 93 | 1005.6 |
| 20260506171022 | 11 | 134 | 1.6 | 17.7 | 0.23 | 0.79 | 0.53 | 93 | 1005.6 |
| 20260506170523 | 11 | 133 | 6.4 | 27.4 | 0.23 | 0.76 | 0.51 | 93 | 1005.5 |
| 20260506170037 | 11 | 182 | 4.8 | 27.4 | 0.23 | 0.74 | 0.48 | 93 | 1005.7 |
| 20260506165521 | 11 | 175 | 3.2 | 19.3 | 0.20 | 0.71 | 0.46 | 94 | 1005.6 |
| 20260506165022 | 11 | 141 | 6.4 | 19.3 | 0.20 | 0.69 | 0.43 | 94 | 1005.6 |
| 20260506164539 | 11 | 136 | 1.6 | 11.3 | 0.23 | 0.69 | 0.43 | 94 | 1005.5 |
| 20260506164021 | 11 | 0 | 1.6 | 12.9 | 0.20 | 0.66 | 0.41 | 94 | 1005.6 |
| 20260506163520 | 11 | 138 | 1.6 | 14.5 | 0.18 | 0.64 | 0.38 | 94 | 1005.6 |
| 20260506163046 | 11 | 159 | 1.6 | 14.5 | 0.20 | 0.64 | 0.38 | 94 | 1005.6 |
| 20260506162522 | 11 | 153 | 3.2 | 14.5 | 0.18 | 0.61 | 0.36 | 95 | 1005.7 |
| 20260506162021 | 11 | 0 | 1.6 | 16.1 | 0.18 | 0.58 | 0.33 | 95 | 1005.7 |
| 20260506161552 | 11 | 125 | 4.8 | 16.1 | 0.18 | 0.58 | 0.33 | 94 | 1005.8 |
| 20260506161021 | 11 | 145 | 4.8 | 12.9 | 0.13 | 0.53 | 0.28 | 94 | 1005.8 |
| 20260506160524 | 11 | 101 | 3.2 | 20.9 | 0.15 | 0.53 | 0.28 | 94 | 1005.8 |
| 20260506160037 | 11 | 151 | 4.8 | 20.9 | 0.13 | 0.51 | 0.25 | 94 | 1006.0 |
| 20260506155521 | 11 | 128 | 3.2 | 16.1 | 0.13 | 0.51 | 0.25 | 94 | 1006.2 |
| 20260506155022 | 11 | 173 | 3.2 | 27.4 | 0.13 | 0.48 | 0.23 | 93 | 1006.2 |
| 20260506154537 | 11 | 155 | 6.4 | 27.4 | 0.10 | 0.46 | 0.20 | 93 | 1006.2 |
| 20260506154021 | 11 | 113 | 6.4 | 22.5 | 0.10 | 0.46 | 0.20 | 93 | 1006.2 |
| 20260506153522 | 11 | 165 | 8.0 | 22.5 | 0.10 | 0.43 | 0.18 | 93 | 1006.4 |
| 20260506153036 | 11 | 178 | 4.8 | 27.4 | 0.10 | 0.43 | 0.18 | 93 | 1006.4 |
| 20260506152521 | 11 | 119 | 3.2 | 27.4 | 0.10 | 0.43 | 0.18 | 93 | 1006.4 |
| 20260506152021 | 11 | 150 | 4.8 | 19.3 | 0.08 | 0.41 | 0.15 | 93 | 1006.6 |
| 20260506151536 | 11 | 161 | 4.8 | 19.3 | 0.08 | 0.41 | 0.15 | 93 | 1006.6 |
| 20260506151021 | 11 | 134 | 6.4 | 24.1 | 0.08 | 0.41 | 0.15 | 92 | 1006.8 |
| 20260506150521 | 11 | 281 | 6.4 | 24.1 | 0.05 | 0.38 | 0.13 | 92 | 1006.7 |
| 20260506150041 | 11 | 167 | 3.2 | 16.1 | 0.08 | 0.38 | 0.13 | 93 | 1006.9 |
| 20260506145522 | 11 | 90 | 3.2 | 14.5 | 0.08 | 0.38 | 0.13 | 93 | 1006.8 |
| 20260506145021 | 11 | 153 | 1.6 | 14.5 | 0.05 | 0.36 | 0.10 | 93 | 1006.8 |
| 20260506144540 | 11 | 188 | 4.8 | 14.5 | 0.05 | 0.36 | 0.10 | 93 | 1006.8 |
| 20260506144022 | 11 | 103 | 1.6 | 19.3 | 0.05 | 0.36 | 0.10 | 93 | 1006.9 |
| 20260506143519 | 11 | 167 | 4.8 | 19.3 | 0.03 | 0.33 | 0.08 | 92 | 1007.0 |
| 20260506143036 | 11 | 175 | 3.2 | 14.5 | 0.03 | 0.33 | 0.08 | 92 | 1006.9 |
| 20260506142519 | 11 | 146 | 3.2 | 14.5 | 0.03 | 0.33 | 0.08 | 92 | 1006.8 |
| 20260506142022 | 11 | 150 | 1.6 | 14.5 | 0.05 | 0.33 | 0.08 | 92 | 1006.8 |
| 20260506141533 | 11 | 155 | 4.8 | 14.5 | 0.05 | 0.33 | 0.08 | 91 | 1006.9 |
| 20260506141021 | 11 | 168 | 4.8 | 16.1 | 0.05 | 0.33 | 0.08 | 91 | 1006.8 |
| 20260506140519 | 11 | 164 | 3.2 | 16.1 | 0.05 | 0.33 | 0.08 | 92 | 1006.8 |
| 20260506140040 | 11 | 165 | 1.6 | 22.5 | 0.03 | 0.30 | 0.05 | 92 | 1006.7 |
| 20260506135526 | 11 | 170 | 3.2 | 22.5 | 0.03 | 0.30 | 0.05 | 92 | 1006.7 |
| 20260506135024 | 11 | 169 | 3.2 | 19.3 | 0.03 | 0.30 | 0.05 | 91 | 1006.9 |
| 20260506134608 | 11 | 128 | 6.4 | 19.3 | 0.03 | 0.30 | 0.05 | 91 | 1006.8 |
| 20260506134021 | 11 | 161 | 4.8 | 19.3 | 0.03 | 0.30 | 0.05 | 91 | 1006.9 |
| 20260506133524 | 11 | 92 | 3.2 | 17.7 | 0.03 | 0.30 | 0.05 | 91 | 1006.7 |
| 20260506133036 | 11 | 141 | 4.8 | 24.1 | 0.03 | 0.30 | 0.05 | 91 | 1006.6 |
| 20260506132522 | 11 | 293 | 3.2 | 24.1 | 0.03 | 0.30 | 0.05 | 92 | 1006.6 |
| 20260506132023 | 11 | 0 | 1.6 | 16.1 | 0.00 | 0.28 | 0.03 | 91 | 1006.8 |
| 20260506131543 | 11 | 114 | 1.6 | 12.9 | 0.00 | 0.28 | 0.03 | 91 | 1006.8 |
| 20260506131019 | 11 | 141 | 3.2 | 12.9 | 0.00 | 0.28 | 0.03 | 91 | 1007.0 |
| 20260506130523 | 11 | 171 | 3.2 | 12.9 | 0.00 | 0.28 | 0.03 | 91 | 1007.1 |
| 20260506130034 | 11 | 166 | 3.2 | 9.7 | 0.00 | 0.28 | 0.03 | 91 | 1007.1 |
| 20260506125521 | 11 | 126 | 0.0 | 11.3 | 0.00 | 0.28 | 0.03 | 91 | 1007.1 |
| 20260506125018 | 11 | 0 | 1.6 | 11.3 | 0.00 | 0.28 | 0.03 | 92 | 1007.4 |
| 20260506124534 | 11 | 162 | 1.6 | 11.3 | 0.00 | 0.28 | 0.03 | 91 | 1007.3 |
| 20260506124022 | 11 | 136 | 1.6 | 8.0 | 0.00 | 0.28 | 0.03 | 91 | 1007.3 |
| 20260506123522 | 11 | 161 | 1.6 | 8.0 | 0.00 | 0.28 | 0.03 | 91 | 1007.1 |
| 20260506123044 | 11 | 0 | 0.0 | 6.4 | 0.00 | 0.28 | 0.03 | 92 | 1007.1 |
| 20260506122522 | 11 | 0 | 0.0 | 6.4 | 0.00 | 0.28 | 0.03 | 93 | 1007.0 |
| 20260506122023 | 11 | 0 | 0.0 | 4.8 | 0.00 | 0.28 | 0.03 | 94 | 1007.1 |
| 20260506121536 | 10 | 0 | 0.0 | 4.8 | 0.00 | 0.28 | 0.03 | 94 | 1007.2 |
| 20260506121022 | 10 | 0 | 0.0 | 3.2 | 0.00 | 0.28 | 0.03 | 94 | 1007.2 |
| 20260506120522 | 10 | 0 | 0.0 | 4.8 | 0.00 | 0.28 | 0.03 | 94 | 1007.2 |
| 20260506120035 | 10 | 146 | 0.0 | 4.8 | 0.00 | 0.28 | 0.03 | 94 | 1007.3 |
| 20260506115518 | 10 | 0 | 0.0 | 3.2 | 0.00 | 0.28 | 0.03 | 93 | 1007.3 |
| 20260506115021 | 10 | 146 | 0.0 | 8.0 | 0.00 | 0.28 | 0.03 | 93 | 1007.3 |
| 20260506114543 | 10 | 0 | 0.0 | 8.0 | 0.00 | 0.28 | 0.03 | 93 | 1007.2 |
| 20260506114022 | 10 | 0 | 1.6 | 8.0 | 0.00 | 0.28 | 0.03 | 93 | 1007.4 |
| 20260506113522 | 10 | 0 | 0.0 | 9.7 | 0.00 | 0.28 | 0.03 | 92 | 1007.4 |
| 20260506113037 | 10 | 148 | 1.6 | 9.7 | 0.00 | 0.28 | 0.03 | 92 | 1007.4 |
| 20260506112519 | 10 | 143 | 1.6 | 8.0 | 0.00 | 0.28 | 0.03 | 91 | 1007.2 |
| 20260506112020 | 10 | 135 | 1.6 | 9.7 | 0.00 | 0.28 | 0.03 | 90 | 1007.4 |
| 20260506111533 | 11 | 133 | 3.2 | 9.7 | 0.00 | 0.28 | 0.03 | 89 | 1007.3 |
| 20260506111021 | 11 | 105 | 1.6 | 9.7 | 0.00 | 0.28 | 0.03 | 88 | 1007.2 |
| 20260506110523 | 11 | 98 | 1.6 | 9.7 | 0.00 | 0.28 | 0.03 | 88 | 1007.2 |
| 20260506110041 | 11 | 96 | 1.6 | 9.7 | 0.00 | 0.28 | 0.03 | 87 | 1007.2 |
| 20260506105520 | 11 | 118 | 4.8 | 9.7 | 0.00 | 0.28 | 0.03 | 87 | 1007.1 |
| 20260506105021 | 10 | 157 | 1.6 | 8.0 | 0.00 | 0.28 | 0.03 | 85 | 1007.4 |
| 20260506104536 | 10 | 207 | 1.6 | 8.0 | 0.00 | 0.28 | 0.03 | 85 | 1007.3 |
| 20260506104020 | 10 | 213 | 0.0 | 4.8 | 0.00 | 0.28 | 0.03 | 86 | 1007.3 |
| 20260506103520 | 10 | 0 | 0.0 | 4.8 | 0.00 | 0.28 | 0.03 | 87 | 1007.4 |
| 20260506103036 | 10 | 213 | 0.0 | 4.8 | 0.00 | 0.28 | 0.03 | 88 | 1007.4 |
| 20260506102520 | 10 | 0 | 0.0 | 4.8 | 0.00 | 0.28 | 0.03 | 89 | 1007.2 |
| 20260506102020 | 10 | 0 | 0.0 | 3.2 | 0.00 | 0.28 | 0.03 | 90 | 1007.2 |
| 20260506101537 | 10 | 0 | 0.0 | 0.0 | 0.00 | 0.28 | 0.03 | 91 | 1007.4 |
| 20260506101021 | 10 | 0 | 0.0 | 0.0 | 0.00 | 0.28 | 0.03 | 91 | 1007.3 |
| 20260506100520 | 10 | 0 | 0.0 | 0.0 | 0.00 | 0.28 | 0.03 | 91 | 1007.3 |
| 20260506100036 | 10 | 0 | 0.0 | 0.0 | 0.00 | 0.28 | 0.03 | 91 | 1007.1 |
| 20260506095524 | 9 | 0 | 0.0 | 0.0 | 0.00 | 0.28 | 0.03 | 91 | 1007.4 |
| 20260506095022 | 9 | 0 | 0.0 | 0.0 | 0.00 | 0.28 | 0.03 | 91 | 1007.3 |
| 20260506094613 | 9 | 0 | 0.0 | 0.0 | 0.00 | 0.28 | 0.03 | 91 | 1007.3 |
| 20260506094023 | 9 | 0 | 0.0 | 0.0 | 0.00 | 0.28 | 0.03 | 91 | 1007.5 |
| 20260506093520 | 9 | 0 | 0.0 | 0.0 | 0.00 | 0.28 | 0.03 | 91 | 1007.4 |
| 20260506093037 | 9 | 0 | 0.0 | 0.0 | 0.00 | 0.28 | 0.03 | 91 | 1007.4 |
| 20260506092519 | 10 | 0 | 0.0 | 0.0 | 0.00 | 0.28 | 0.03 | 91 | 1007.3 |
| 20260506092020 | 10 | 0 | 0.0 | 0.0 | 0.00 | 0.28 | 0.03 | 90 | 1007.3 |
| 20260506091537 | 10 | 0 | 0.0 | 0.0 | 0.00 | 0.28 | 0.03 | 90 | 1007.3 |
| 20260506091022 | 10 | 0 | 0.0 | 0.0 | 0.00 | 0.28 | 0.03 | 90 | 1007.4 |
| 20260506090521 | 10 | 0 | 0.0 | 0.0 | 0.00 | 0.28 | 0.03 | 90 | 1007.5 |
| 20260506090035 | 10 | 0 | 0.0 | 0.0 | 0.00 | 0.28 | 0.03 | 90 | 1007.5 |